Location: S�tio Afonso Gruber
(26.1760°S, 49.5250°W)
Time: 00:24:59
(UTC+00:00)

Intelsat 5-3 Rocket - Pass Details

Date: 01 October 2020
Orbit: 281 x 6111 km, 23.6° (Epoch: 22 October)

Event Time Altitude Azimuth Distance (km) Brightness Sun altitude
Exits shadow 04:17:36 76° 62° (ENE) 4,863 6.6 -56.0°
Drops below altitude 10° 04:55:55 10° 82° (E) 9,607 8.8 -50.5°
Sets 05:03:52 0° 82° (E) 10,369 9.1 -49.2°
